Terminal Aerodrome Forecast
Issued by NWS Charleston, WV

Current Version | Previous Version | Graphics & Text | Print | Product List | Glossary On
Versions: 1 2 3 4 5 6 7 8 9 10 11 12 13 14 15 16 17 18 19 20 21 22 23 24 25 26 27 28 29 30
000
FTUS41 KRLX 292338
TAFEKN
TAF
KEKN 292338Z 3000/3024 00000KT 3SM SHRA VCTS OVC040CB
     FM300400 12008KT 3SM BR OVC006
     FM300800 11007KT 3SM SHRA OVC010
     FM301300 11009KT 4SM SHRA OVC015
     FM301800 11008KT 6SM -SHRA OVC022=

USA.gov is the U.S. government's official web portal to all federal, state and local government web resources and services.